Location: ??
(35.5990°N, 139.7298°E)
Time: 07:40:16
(UTC+00:00)

STARLINK-1332 - Pass Details

Date: 07 June 2020
Orbit: 391 x 392 km, 53.0° (Epoch: 06 July)

Event Time Altitude Azimuth Distance (km) Brightness Sun altitude
Rises 10:31:25 0° 199° (SSW) 2,249 6.6 -7.1°
Reaches altitude 10° 10:33:41 10° 185° (S) 1,400 5.4 -7.5°
Maximum altitude 10:36:16 24° 129° (SE) 852 4.0 -7.9°
Drops below altitude 10° 10:38:52 10° 73° (ENE) 1,408 5.4 -8.4°
Sets 10:41:09 0° 59° (ENE) 2,266 6.5 -8.7°
